Tucson Davis Monthan, AZ

8:31 PM MST on June 24, 2018 (GMT -0700)
Davis-Monthan Air Force Base

Weather History for KDMA - December, 2017

Change the Weather History Date:

Sunday, December 24, 2017

  Actual Average Record
Temperature  
Mean Temperature 56 °F -  
Max Temperature 74 °F 63 °F 78 °F (1955)
Min Temperature 38 °F 37 °F 16 °F (1974)
Degree Days  
Heating Degree Days 9    
Growing Degree Days 6 (Base 50)    
Moisture  
Dew Point 18 °F    
Average Humidity 30    
Maximum Humidity 54    
Minimum Humidity 8    
Precipitation  
Precipitation 0.00 in - - ()
Sea Level Pressure  
Sea Level Pressure 30.13 in    
Wind  
Wind Speed 6 mph (SE)    
Max Wind Speed 10 mph    
Max Gust Speed -    
Visibility 10 miles    
Events      
Averages and records for this station are not official NWS values.
T = Trace of Precipitation, MM = Missing Value Source: NWS Daily Summary

Daily Weather History Graph

Daily Weather History Graph

Search for Another Location

Airport or City:

Astronomy

Dec. 24, 2017 Rise Set
Actual Time 7:21 AM MST 5:24 PM MST
Civil Twilight 6:54 AM MST 5:51 PM MST
Nautical Twilight 6:24 AM MST 6:22 PM MST
Astronomical Twilight 5:54 AM MST 6:52 PM MST
Moon 11:37 AM MST (12/24) 11:19 PM MST (12/24)
Length of Visible Light 10h 56m
Length of Day
10h 02m
Waxing Crescent, 34% of the Moon is Illuminated
Dec 24
Waxing Crescent
Dec 26
First Quarter
Jan 1
Full
Jan 8
Last Quarter
Jan 16
New

Hourly Weather History & Observations

Time (MST) Temp. Windchill Dew Point Humidity Pressure Visibility Wind Dir Wind Speed Gust Speed Precip Events Conditions
12:58 AM 39.9 °F 35.1 °F 24.3 °F 54% 30.17 in 10.0 mi SE 6.9 mph - N/A   Clear
1:58 AM 41.4 °F 35.7 °F 20.5 °F 43% 30.16 in 10.0 mi ESE 9.2 mph - N/A   Clear
2:58 AM 39.9 °F 35.1 °F 20.3 °F 45% 30.15 in 10.0 mi ESE 6.9 mph - N/A   Clear
3:58 AM 39.9 °F 34.5 °F 18.7 °F 42% 30.14 in 10.0 mi SSE 8.1 mph - N/A   Clear
4:58 AM 41.4 °F 36.8 °F 19.9 °F 42% 30.14 in 10.0 mi SSE 6.9 mph - N/A   Clear
5:58 AM 41.9 °F 36.3 °F 16.9 °F 36% 30.15 in 10.0 mi SSE 9.2 mph - N/A   Clear
6:58 AM 38.8 °F 32.1 °F 17.8 °F 43% 30.19 in 10.0 mi SSE 10.4 mph - N/A   Clear
7:58 AM 38.7 °F 36.3 °F 18.1 °F 44% 30.20 in 10.0 mi South 3.5 mph - N/A   Clear
8:58 AM 47.5 °F - 19.0 °F 32% 30.19 in 10.0 mi SSE 10.4 mph - N/A   Clear
9:58 AM 55.2 °F - 17.1 °F 22% 30.19 in 10.0 mi ENE 3.5 mph - N/A   Clear
10:58 AM 61.7 °F - 20.1 °F 20% 30.18 in 10.0 mi Calm Calm - N/A   Clear
11:58 AM 65.3 °F - 20.7 °F 18% 30.13 in 10.0 mi Calm Calm - N/A   Clear
12:58 PM 71.2 °F - 19.6 °F 14% 30.09 in 10.0 mi Calm Calm - N/A   Clear
1:58 PM 73.8 °F - 16.0 °F 11% 30.06 in 10.0 mi Calm Calm - N/A   Clear
2:58 PM 74.1 °F - 11.7 °F 9% 30.05 in 10.0 mi WNW 4.6 mph - N/A   Clear
3:58 PM 73.0 °F - 8.2 °F 8% 30.05 in 10.0 mi NNW 4.6 mph - N/A   Clear
4:58 PM 68.7 °F - 15.8 °F 13% 30.06 in 10.0 mi NW 5.8 mph - N/A   Clear
5:58 PM 59.5 °F - 17.2 °F 19% 30.09 in 10.0 mi NW 3.5 mph - N/A   Clear
6:58 PM 57.0 °F - 17.4 °F 21% 30.10 in 10.0 mi WNW 3.5 mph - N/A   Clear
7:58 PM 51.4 °F - 15.8 °F 24% 30.13 in 10.0 mi Calm Calm - N/A   Clear
8:58 PM 48.2 °F - 21.7 °F 35% 30.12 in 10.0 mi SSE 4.6 mph - N/A   Clear
9:58 PM 45.7 °F - 21.6 °F 38% 30.11 in 10.0 mi Calm Calm - N/A   Clear
10:58 PM 44.1 °F 40.1 °F 21.2 °F 40% 30.12 in 10.0 mi SSE 6.9 mph - N/A   Clear
11:58 PM 43.2 °F 37.9 °F 19.9 °F 40% 30.12 in 10.0 mi SE 9.2 mph - N/A   Clear